Location: �terpigny
(49.8910°N, 2.9249°E)
Time: 13:05:33
(UTC+00:00)

Cosmos 1821 Rocket - Pass Details

Date: 24 October 2021
Orbit: 944 x 1005 km, 82.9° (Epoch: 06 December)

Event Time Altitude Azimuth Distance (km) Brightness Sun altitude
Rises 17:14:51 0° 182° (S) 3,720 7.2 -6.4°
Reaches altitude 10° 17:17:22 10° 181° (S) 2,772 6.5 -6.8°
Maximum altitude 17:23:45 77° 96° (E) 1,028 4.0 -7.8°
Drops below altitude 10° 17:30:05 10° 12° (NNE) 2,763 6.2 -8.8°
Sets 17:32:36 0° 11° (N) 3,707 6.8 -9.2°
